VJC3522 UHWW-VVNB

Flight info

Callsign VJC3522
Flight time 5h 6m
Altitude 32100
Route SANAR2F SANAR B451 WQG G341 TGO G212 UKDUM/K0835S1040 G212 BUMDU W47 ASAVA W45 LYA/K0837S1070 W45 ML/K0843S1040 W45 NUPTI R343 EXURI/K0846S1100 R343 WUY R474 NAKHA NAKHA3E
Aircraft A21N/M-SDE3FGHIRWY/LB1

Departure

Time 2026-05-09 12:27
Airport Vladivostok International Airport (UHWW)

Arrival

Time 2026-05-09 17:33
Airport Noi Bai International Airport (VVNB)
Time Latitude Longitude Altitude Speed Heading
2026-05-09 12:08 43.39730 132.16489 54 ft 0 kts 150°
2026-05-09 12:17 43.39738 132.16483 54 ft 2 kts 150°
2026-05-09 12:17 43.39751 132.16472 54 ft 2 kts 149°
2026-05-09 12:17 43.39764 132.16461 54 ft 2 kts 150°
2026-05-09 12:18 43.39777 132.16450 54 ft 2 kts 149°
2026-05-09 12:18 43.39790 132.16440 54 ft 2 kts 133°
2026-05-09 12:18 43.39798 132.16423 54 ft 2 kts 113°
2026-05-09 12:18 43.39802 132.16403 54 ft 2 kts 92°
2026-05-09 12:19 43.39800 132.16383 55 ft 2 kts 72°
2026-05-09 12:19 43.39794 132.16365 55 ft 1 kts 57°
2026-05-09 12:19 43.39792 132.16359 55 ft 0 kts 58°
2026-05-09 12:21 43.39794 132.16365 55 ft 2 kts 58°
2026-05-09 12:22 43.39808 132.16399 54 ft 5 kts 60°
2026-05-09 12:22 43.39836 132.16466 51 ft 10 kts 60°
2026-05-09 12:22 43.39874 132.16554 47 ft 12 kts 60°
2026-05-09 12:22 43.39910 132.16644 45 ft 10 kts 60°
2026-05-09 12:23 43.39949 132.16739 43 ft 11 kts 60°
2026-05-09 12:23 43.39990 132.16836 40 ft 12 kts 60°
2026-05-09 12:23 43.40031 132.16937 39 ft 10 kts 60°
2026-05-09 12:23 43.40071 132.17033 37 ft 11 kts 60°
2026-05-09 12:24 43.40128 132.17064 36 ft 10 kts 343°
2026-05-09 12:24 43.40197 132.17018 35 ft 11 kts 332°
2026-05-09 12:24 43.40263 132.16969 34 ft 11 kts 332°
2026-05-09 12:24 43.40335 132.16916 33 ft 11 kts 330°
2026-05-09 12:25 43.40406 132.16861 33 ft 11 kts 330°
2026-05-09 12:25 43.40433 132.16791 33 ft 8 kts 249°
2026-05-09 12:25 43.40413 132.16745 33 ft 0 kts 240°
2026-05-09 12:25 43.40407 132.16731 33 ft 7 kts 240°
2026-05-09 12:26 43.40290 132.16441 37 ft 69 kts 241°
2026-05-09 12:26 43.39955 132.15608 54 ft 130 kts 240°
2026-05-09 12:26 43.39419 132.14285 43 ft 182 kts 241°
2026-05-09 12:26 43.38788 132.12711 496 ft 191 kts 241°
2026-05-09 12:27 43.38153 132.11134 1281 ft 188 kts 241°
2026-05-09 12:27 43.37530 132.09604 2002 ft 186 kts 241°
2026-05-09 12:27 43.36999 132.07933 2291 ft 196 kts 263°
2026-05-09 12:27 43.37278 132.06099 2545 ft 206 kts 295°
2026-05-09 12:28 43.37815 132.04178 2730 ft 226 kts 277°
2026-05-09 12:28 43.37570 132.02019 3012 ft 242 kts 250°
2026-05-09 12:28 43.36946 131.99789 3393 ft 254 kts 251°
2026-05-09 12:28 43.36327 131.97527 3970 ft 258 kts 252°
2026-05-09 12:29 43.35689 131.95201 4569 ft 262 kts 252°
2026-05-09 12:29 43.35047 131.92879 5169 ft 265 kts 252°
2026-05-09 12:29 43.34385 131.90501 5793 ft 267 kts 253°
2026-05-09 12:29 43.33725 131.88138 6393 ft 270 kts 253°
2026-05-09 12:30 43.33047 131.85712 6988 ft 272 kts 253°
2026-05-09 12:30 43.32373 131.83305 7601 ft 275 kts 253°
2026-05-09 12:30 43.30992 131.78394 8755 ft 280 kts 253°
2026-05-09 12:31 43.30285 131.75884 9291 ft 282 kts 254°
2026-05-09 12:31 43.28861 131.70833 10284 ft 289 kts 253°
2026-05-09 12:31 43.28127 131.68227 10548 ft 302 kts 253°
2026-05-09 12:32 43.27350 131.65469 10788 ft 315 kts 253°
2026-05-09 12:32 43.26550 131.62640 11005 ft 327 kts 253°
2026-05-09 12:32 43.25717 131.59706 11478 ft 330 kts 253°
2026-05-09 12:32 43.24885 131.56792 12019 ft 333 kts 253°
2026-05-09 12:33 43.24035 131.53812 12489 ft 336 kts 252°
2026-05-09 12:33 43.23188 131.50842 12916 ft 340 kts 252°
2026-05-09 12:33 43.22334 131.47797 13364 ft 342 kts 255°
2026-05-09 12:33 43.21805 131.44665 13821 ft 341 kts 267°
2026-05-09 12:34 43.21752 131.41428 14294 ft 339 kts 278°
2026-05-09 12:34 43.21965 131.38246 14734 ft 340 kts 280°
2026-05-09 12:34 43.22218 131.35011 15236 ft 341 kts 280°
2026-05-09 12:34 43.22466 131.31802 15683 ft 343 kts 279°
2026-05-09 12:35 43.22707 131.28567 16140 ft 345 kts 279°
2026-05-09 12:35 43.22943 131.25273 16549 ft 348 kts 279°
2026-05-09 12:35 43.23174 131.22000 16954 ft 350 kts 279°
2026-05-09 12:35 43.23401 131.18660 17403 ft 352 kts 278°
2026-05-09 12:36 43.23576 131.15337 17813 ft 354 kts 277°
2026-05-09 12:36 43.23734 131.11951 18242 ft 356 kts 277°
2026-05-09 12:36 43.23889 131.08597 18653 ft 357 kts 277°
2026-05-09 12:36 43.24048 131.05173 19012 ft 360 kts 277°
2026-05-09 12:37 43.24206 131.01767 19362 ft 363 kts 277°
2026-05-09 12:37 43.24368 130.98286 19719 ft 366 kts 277°
2026-05-09 12:37 43.24529 130.94827 20076 ft 369 kts 277°
2026-05-09 12:37 43.24692 130.91293 20425 ft 371 kts 277°
2026-05-09 12:38 43.24855 130.87785 20779 ft 373 kts 277°
2026-05-09 12:38 43.25018 130.84206 21125 ft 375 kts 277°
2026-05-09 12:38 43.25179 130.80659 21467 ft 378 kts 277°
2026-05-09 12:38 43.25342 130.77042 21791 ft 380 kts 277°
2026-05-09 12:39 43.25503 130.73447 22093 ft 383 kts 277°
2026-05-09 12:39 43.25667 130.69778 22401 ft 385 kts 277°
2026-05-09 12:39 43.25827 130.66136 22704 ft 388 kts 277°
2026-05-09 12:39 43.25989 130.62421 23002 ft 390 kts 277°
2026-05-09 12:40 43.26149 130.58730 23275 ft 393 kts 277°
2026-05-09 12:40 43.26312 130.54965 23568 ft 395 kts 277°
2026-05-09 12:40 43.26472 130.51230 23848 ft 398 kts 276°
2026-05-09 12:40 43.26635 130.47421 24131 ft 400 kts 276°
2026-05-09 12:41 43.26794 130.43645 24416 ft 402 kts 276°
2026-05-09 12:41 43.26955 130.39798 24694 ft 404 kts 276°
2026-05-09 12:41 43.27114 130.35982 24958 ft 406 kts 276°
2026-05-09 12:41 43.27273 130.32094 25219 ft 408 kts 275°
2026-05-09 12:42 43.27432 130.28239 25472 ft 410 kts 275°
2026-05-09 12:42 43.27590 130.24312 25722 ft 412 kts 275°
2026-05-09 12:42 43.27746 130.20422 25966 ft 414 kts 275°
2026-05-09 12:42 43.27903 130.16463 26206 ft 415 kts 275°
2026-05-09 12:43 43.28057 130.12530 26425 ft 417 kts 275°
2026-05-09 12:43 43.28214 130.08534 26645 ft 419 kts 275°
2026-05-09 12:43 43.28366 130.04575 26860 ft 421 kts 275°
2026-05-09 12:43 43.28519 130.00577 27076 ft 423 kts 275°
2026-05-09 12:44 43.28673 129.96507 27288 ft 424 kts 275°
2026-05-09 12:44 43.28823 129.92496 27504 ft 426 kts 275°
2026-05-09 12:44 43.28973 129.88417 27746 ft 426 kts 275°
2026-05-09 12:44 43.29122 129.84390 27975 ft 427 kts 275°
2026-05-09 12:45 43.29322 129.80335 28176 ft 428 kts 278°
2026-05-09 12:45 43.29691 129.76266 28382 ft 428 kts 281°
2026-05-09 12:45 43.30213 129.72286 28605 ft 429 kts 283°
2026-05-09 12:45 43.30788 129.68253 28806 ft 430 kts 283°
2026-05-09 12:46 43.31364 129.64262 28988 ft 431 kts 283°
2026-05-09 12:46 43.31947 129.60204 29201 ft 432 kts 283°
2026-05-09 12:46 43.32519 129.56190 29398 ft 434 kts 284°
2026-05-09 12:46 43.33098 129.52107 29585 ft 435 kts 283°
2026-05-09 12:47 43.33668 129.48065 29766 ft 436 kts 283°
2026-05-09 12:47 43.34244 129.43955 29949 ft 438 kts 284°
2026-05-09 12:47 43.34813 129.39896 30196 ft 437 kts 284°
2026-05-09 12:47 43.35386 129.35791 30490 ft 435 kts 284°
2026-05-09 12:48 43.35950 129.31741 30721 ft 435 kts 283°
2026-05-09 12:48 43.36520 129.27640 30920 ft 436 kts 283°
2026-05-09 12:48 43.37083 129.23572 31098 ft 436 kts 283°
2026-05-09 12:48 43.37646 129.19492 31319 ft 435 kts 283°
2026-05-09 12:49 43.38202 129.15443 31584 ft 433 kts 283°
2026-05-09 12:49 43.38765 129.11343 31812 ft 432 kts 283°
2026-05-09 12:49 43.39313 129.07336 32055 ft 431 kts 283°
2026-05-09 12:50 43.40403 128.99216 32144 ft 436 kts 283°
2026-05-09 12:50 43.41483 128.91013 32152 ft 440 kts 283°
2026-05-09 12:51 43.42565 128.82736 32145 ft 442 kts 283°
2026-05-09 12:51 43.43641 128.74458 32148 ft 442 kts 283°
2026-05-09 12:52 43.44712 128.66174 32145 ft 441 kts 283°
2026-05-09 12:52 43.45776 128.57898 32140 ft 440 kts 283°
2026-05-09 12:53 43.46827 128.49661 32142 ft 439 kts 283°
2026-05-09 12:53 43.47881 128.41368 32133 ft 442 kts 283°
2026-05-09 12:54 43.48926 128.33060 32138 ft 441 kts 283°
2026-05-09 12:54 43.49979 128.24797 32139 ft 440 kts 283°
2026-05-09 12:55 43.51083 128.16516 32138 ft 440 kts 283°
2026-05-09 12:55 43.52174 128.08244 32138 ft 442 kts 283°
2026-05-09 12:56 43.53254 127.99970 32142 ft 441 kts 283°
2026-05-09 12:56 43.54325 127.91691 32144 ft 440 kts 283°
2026-05-09 12:57 43.55392 127.83397 32144 ft 440 kts 283°
2026-05-09 12:57 43.56446 127.75178 32148 ft 434 kts 283°
2026-05-09 12:58 43.57497 127.66990 32140 ft 435 kts 283°
2026-05-09 12:58 43.58528 127.58865 32134 ft 428 kts 283°
2026-05-09 12:59 43.59544 127.50806 32124 ft 428 kts 283°
2026-05-09 12:59 43.60550 127.42773 32125 ft 424 kts 283°
2026-05-09 13:00 43.61541 127.34798 32125 ft 423 kts 282°
2026-05-09 13:00 43.62517 127.26855 32117 ft 420 kts 282°
2026-05-09 13:01 43.63397 127.18899 32118 ft 421 kts 281°
2026-05-09 13:01 43.64257 127.10934 32117 ft 419 kts 281°
2026-05-09 13:02 43.65106 127.03050 32121 ft 418 kts 281°
2026-05-09 13:02 43.65950 126.95176 32127 ft 416 kts 281°
2026-05-09 13:03 43.66797 126.87244 32127 ft 417 kts 281°
2026-05-09 13:03 43.67632 126.79358 32121 ft 418 kts 281°
2026-05-09 13:04 43.68460 126.71494 32116 ft 417 kts 281°
2026-05-09 13:04 43.69284 126.63606 32110 ft 417 kts 281°
2026-05-09 13:05 43.70108 126.55653 32102 ft 416 kts 281°
2026-05-09 13:05 43.70921 126.47767 32092 ft 416 kts 281°
2026-05-09 13:06 43.71728 126.39883 32091 ft 416 kts 281°
2026-05-09 13:06 43.72530 126.31991 32100 ft 415 kts 280°
2026-05-09 13:07 43.73321 126.24132 32091 ft 416 kts 280°
2026-05-09 13:07 43.74112 126.16235 32092 ft 416 kts 280°
2026-05-09 13:08 43.74897 126.08341 32088 ft 416 kts 280°
2026-05-09 13:08 43.75674 126.00446 32082 ft 416 kts 280°
2026-05-09 13:09 43.76479 125.92553 32083 ft 416 kts 280°
2026-05-09 13:09 43.76971 125.84600 32071 ft 418 kts 275°
2026-05-09 13:10 43.76865 125.76575 32069 ft 420 kts 269°
2026-05-09 13:10 43.76446 125.68544 32073 ft 420 kts 269°
2026-05-09 13:11 43.76012 125.60518 32073 ft 420 kts 269°
2026-05-09 13:11 43.75572 125.52497 32066 ft 420 kts 269°
2026-05-09 13:12 43.75126 125.44477 32064 ft 420 kts 269°
2026-05-09 13:12 43.74673 125.36450 32062 ft 420 kts 269°
2026-05-09 13:13 43.74212 125.28395 32057 ft 421 kts 268°
2026-05-09 13:13 43.73748 125.20361 32052 ft 420 kts 268°
2026-05-09 13:14 43.73281 125.12331 32050 ft 421 kts 268°
2026-05-09 13:16 43.71340 124.80145 32041 ft 422 kts 267°
2026-05-09 13:16 43.70841 124.72084 32040 ft 422 kts 267°
2026-05-09 13:17 43.70336 124.64027 32045 ft 422 kts 267°
2026-05-09 13:17 43.69823 124.55969 32043 ft 423 kts 267°
2026-05-09 13:18 43.69305 124.47895 32040 ft 424 kts 267°
2026-05-09 13:18 43.68779 124.39809 32037 ft 424 kts 267°
2026-05-09 13:19 43.68244 124.31703 32033 ft 425 kts 266°
2026-05-09 13:19 43.67756 124.23574 32033 ft 426 kts 267°
2026-05-09 13:20 43.67306 124.15427 32031 ft 427 kts 267°
2026-05-09 13:20 43.66844 124.07279 32027 ft 427 kts 266°
2026-05-09 13:21 43.66371 123.99137 32025 ft 427 kts 267°
2026-05-09 13:21 43.65895 123.91045 32026 ft 427 kts 266°
2026-05-09 13:22 43.65410 123.82903 32022 ft 427 kts 266°
2026-05-09 13:22 43.64919 123.74740 32015 ft 429 kts 266°
2026-05-09 13:23 43.63656 123.54259 32012 ft 430 kts 266°
2026-05-09 13:24 43.63140 123.46067 32007 ft 430 kts 266°
2026-05-09 13:24 43.62618 123.37863 32008 ft 431 kts 266°
2026-05-09 13:25 43.62087 123.29646 32006 ft 431 kts 265°
2026-05-09 13:26 43.61299 123.17293 32000 ft 432 kts 266°
2026-05-09 13:26 43.60890 123.09035 31998 ft 433 kts 267°
2026-05-09 13:27 43.60480 123.00784 31995 ft 433 kts 266°
2026-05-09 13:27 43.60055 122.92531 31997 ft 433 kts 267°
2026-05-09 13:28 43.59624 122.84319 31990 ft 433 kts 266°
2026-05-09 13:28 43.59184 122.76072 31988 ft 433 kts 266°
2026-05-09 13:29 43.58736 122.67812 31985 ft 434 kts 266°
2026-05-09 13:29 43.58282 122.59544 31981 ft 434 kts 266°
2026-05-09 13:30 43.57819 122.51264 31978 ft 435 kts 266°
2026-05-09 13:30 43.57350 122.42965 31970 ft 435 kts 266°
2026-05-09 13:31 43.56874 122.34679 31970 ft 435 kts 266°
2026-05-09 13:31 43.56022 122.26459 31969 ft 436 kts 257°
2026-05-09 13:32 43.54191 122.18477 31960 ft 438 kts 248°
2026-05-09 13:32 43.49710 122.07518 31960 ft 440 kts 236°
2026-05-09 13:33 43.46165 122.00691 31965 ft 439 kts 235°
2026-05-09 13:33 43.42614 121.93886 31963 ft 439 kts 236°
2026-05-09 13:34 43.39066 121.87086 31958 ft 439 kts 236°
2026-05-09 13:34 43.35520 121.80297 31952 ft 438 kts 236°
2026-05-09 13:35 43.31977 121.73526 31962 ft 438 kts 236°
2026-05-09 13:35 43.28428 121.66759 31951 ft 438 kts 236°
2026-05-09 13:36 43.24881 121.60010 31948 ft 437 kts 236°
2026-05-09 13:36 43.21357 121.53318 31951 ft 437 kts 236°
2026-05-09 13:37 43.17805 121.46591 31943 ft 437 kts 236°
2026-05-09 13:37 43.14253 121.39878 31944 ft 437 kts 236°
2026-05-09 13:38 43.10696 121.33172 31940 ft 436 kts 235°
2026-05-09 13:38 43.07127 121.26459 31935 ft 436 kts 235°
2026-05-09 13:39 43.03559 121.19762 31930 ft 436 kts 235°
2026-05-09 13:39 43.00000 121.13095 31925 ft 435 kts 235°
2026-05-09 13:40 42.96440 121.06445 31922 ft 435 kts 235°
2026-05-09 13:40 42.92877 120.99799 31919 ft 435 kts 235°
2026-05-09 13:41 42.89308 120.93162 31912 ft 434 kts 235°
2026-05-09 13:41 42.85731 120.86521 31915 ft 433 kts 234°
2026-05-09 13:42 42.82171 120.79926 31912 ft 434 kts 234°
2026-05-09 13:42 42.78609 120.73347 31910 ft 432 kts 234°
2026-05-09 13:43 42.75054 120.66791 31914 ft 432 kts 234°
2026-05-09 13:43 42.71495 120.60246 31911 ft 431 kts 234°
2026-05-09 13:44 42.67937 120.53714 31907 ft 431 kts 234°
2026-05-09 13:44 42.64377 120.47192 31911 ft 431 kts 234°
2026-05-09 13:45 42.60814 120.40679 31910 ft 430 kts 234°
2026-05-09 13:45 42.57252 120.34184 31907 ft 430 kts 234°
2026-05-09 13:46 42.53692 120.27704 31903 ft 429 kts 234°
2026-05-09 13:46 42.50153 120.21278 31905 ft 430 kts 234°
2026-05-09 13:47 42.46590 120.14823 31905 ft 429 kts 234°
2026-05-09 13:47 42.43026 120.08376 31909 ft 429 kts 234°
2026-05-09 13:48 42.39460 120.01942 31900 ft 428 kts 234°
2026-05-09 13:48 42.35891 119.95515 31904 ft 428 kts 234°
2026-05-09 13:49 42.32323 119.89107 31904 ft 428 kts 234°
2026-05-09 13:49 42.28739 119.82684 31906 ft 427 kts 234°
2026-05-09 13:50 42.25196 119.76346 31909 ft 426 kts 234°
2026-05-09 13:50 42.21608 119.69941 31908 ft 426 kts 234°
2026-05-09 13:51 42.18040 119.63582 31911 ft 425 kts 234°
2026-05-09 13:51 42.14471 119.57236 31912 ft 425 kts 234°
2026-05-09 13:52 42.10907 119.50917 31908 ft 424 kts 234°
2026-05-09 13:52 42.07340 119.44604 31918 ft 425 kts 234°
2026-05-09 13:53 42.03770 119.38297 31922 ft 425 kts 234°
2026-05-09 13:53 42.00198 119.32002 31916 ft 424 kts 233°
2026-05-09 13:54 41.96614 119.25697 32137 ft 426 kts 233°
2026-05-09 13:54 41.94818 119.22543 32305 ft 426 kts 234°
2026-05-09 13:54 41.93019 119.19389 32461 ft 427 kts 234°
2026-05-09 13:55 41.91236 119.16263 32625 ft 427 kts 234°
2026-05-09 13:55 41.89424 119.13091 32792 ft 426 kts 234°
2026-05-09 13:55 41.87633 119.09959 32953 ft 426 kts 234°
2026-05-09 13:55 41.85820 119.06793 33107 ft 426 kts 234°
2026-05-09 13:56 41.84035 119.03678 33228 ft 426 kts 234°
2026-05-09 13:56 41.82224 119.00521 33356 ft 426 kts 234°
2026-05-09 13:56 41.80437 118.97408 33461 ft 426 kts 234°
2026-05-09 13:56 41.78624 118.94253 33582 ft 426 kts 234°
2026-05-09 13:57 41.76834 118.91142 33692 ft 426 kts 234°
2026-05-09 13:57 41.75016 118.87987 33796 ft 426 kts 234°
2026-05-09 13:57 41.71398 118.81712 33935 ft 427 kts 234°
2026-05-09 13:58 41.67781 118.75453 33947 ft 425 kts 234°
2026-05-09 13:58 41.64172 118.69224 33954 ft 426 kts 234°
2026-05-09 13:59 41.60546 118.62975 33948 ft 427 kts 234°
2026-05-09 13:59 41.56908 118.56724 33953 ft 427 kts 234°
2026-05-09 14:00 41.54488 118.52573 33955 ft 427 kts 234°
2026-05-09 14:00 41.49722 118.44182 33962 ft 425 kts 238°
2026-05-09 14:01 41.46587 118.37544 33964 ft 425 kts 241°
2026-05-09 14:01 41.43521 118.30859 33964 ft 425 kts 240°
2026-05-09 14:02 41.40442 118.24159 33939 ft 425 kts 240°
2026-05-09 14:02 41.37343 118.17432 33942 ft 426 kts 240°
2026-05-09 14:03 41.34252 118.10737 33935 ft 426 kts 241°
2026-05-09 14:03 41.31168 118.04069 33926 ft 425 kts 241°
2026-05-09 14:04 41.28072 117.97396 33912 ft 425 kts 241°
2026-05-09 14:04 41.24972 117.90728 33920 ft 425 kts 241°
2026-05-09 14:05 41.21882 117.84093 33922 ft 426 kts 241°
2026-05-09 14:05 41.18777 117.77443 33919 ft 425 kts 241°
2026-05-09 14:06 41.15668 117.70795 33913 ft 426 kts 241°
2026-05-09 14:06 41.12536 117.64116 33914 ft 426 kts 241°
2026-05-09 14:07 41.09430 117.57513 33915 ft 425 kts 242°
2026-05-09 14:07 41.06020 117.51110 33914 ft 429 kts 233°
2026-05-09 14:08 41.01706 117.45615 33918 ft 435 kts 223°
2026-05-09 14:08 40.96587 117.41264 33922 ft 443 kts 212°
2026-05-09 14:09 40.90893 117.38100 33928 ft 446 kts 206°
2026-05-09 14:09 40.85111 117.35175 33928 ft 446 kts 206°
2026-05-09 14:10 40.76612 117.30248 33923 ft 439 kts 217°
2026-05-09 14:11 40.71861 117.25394 33909 ft 431 kts 229°
2026-05-09 14:11 40.68107 117.19389 33911 ft 424 kts 241°
2026-05-09 14:12 40.65282 117.12618 33911 ft 421 kts 247°
2026-05-09 14:12 40.62625 117.05776 33913 ft 422 kts 247°
2026-05-09 14:13 40.59967 116.98961 33908 ft 422 kts 247°
2026-05-09 14:15 40.49207 116.71628 33912 ft 421 kts 248°
2026-05-09 14:15 40.46527 116.64863 33926 ft 420 kts 248°
2026-05-09 14:16 40.43823 116.58046 33926 ft 420 kts 248°
2026-05-09 14:16 40.41119 116.51253 33936 ft 420 kts 248°
2026-05-09 14:17 40.38438 116.44537 33943 ft 419 kts 248°
2026-05-09 14:17 40.35714 116.37811 33933 ft 420 kts 246°
2026-05-09 14:18 40.32547 116.31316 33918 ft 425 kts 240°
2026-05-09 14:18 40.28862 116.25221 33917 ft 429 kts 236°
2026-05-09 14:19 40.25014 116.19280 33904 ft 429 kts 236°
2026-05-09 14:19 40.21164 116.13347 33910 ft 429 kts 236°
2026-05-09 14:20 40.17312 116.07423 33910 ft 429 kts 236°
2026-05-09 14:20 40.13475 116.01533 33924 ft 428 kts 236°
2026-05-09 14:21 40.07690 115.92674 33937 ft 428 kts 236°
2026-05-09 14:21 40.03839 115.86787 33933 ft 427 kts 237°
2026-05-09 14:22 39.99984 115.80911 33937 ft 428 kts 237°
2026-05-09 14:22 39.96138 115.75059 33939 ft 427 kts 236°
2026-05-09 14:23 39.92263 115.69174 33942 ft 426 kts 237°
2026-05-09 14:23 39.88441 115.63383 33953 ft 426 kts 237°
2026-05-09 14:24 39.84578 115.57536 33970 ft 426 kts 237°
2026-05-09 14:24 39.80738 115.51739 33998 ft 425 kts 237°
2026-05-09 14:25 39.77113 115.45724 34005 ft 419 kts 243°
2026-05-09 14:25 39.74046 115.39417 33995 ft 413 kts 248°
2026-05-09 14:26 39.71394 115.32847 34005 ft 411 kts 250°
2026-05-09 14:26 39.68783 115.26260 33991 ft 411 kts 250°
2026-05-09 14:27 39.66167 115.19679 33999 ft 411 kts 250°
2026-05-09 14:27 39.63549 115.13107 34025 ft 410 kts 250°
2026-05-09 14:28 39.60941 115.06572 34027 ft 410 kts 250°
2026-05-09 14:28 39.58322 115.00023 34037 ft 411 kts 249°
2026-05-09 14:29 39.55692 114.93462 34069 ft 410 kts 250°
2026-05-09 14:29 39.53079 114.86958 34068 ft 410 kts 250°
2026-05-09 14:30 39.50430 114.80379 34071 ft 411 kts 250°
2026-05-09 14:30 39.47794 114.73843 34074 ft 410 kts 250°
2026-05-09 14:31 39.45166 114.67345 34078 ft 410 kts 250°
2026-05-09 14:31 39.42510 114.60790 34071 ft 410 kts 250°
2026-05-09 14:32 39.39853 114.54253 34070 ft 411 kts 250°
2026-05-09 14:32 39.37218 114.47785 34073 ft 410 kts 249°
2026-05-09 14:33 39.34554 114.41270 34057 ft 411 kts 249°
2026-05-09 14:33 39.31886 114.34759 34057 ft 412 kts 249°
2026-05-09 14:34 39.29210 114.28228 34057 ft 413 kts 249°
2026-05-09 14:34 39.26292 114.21818 34062 ft 419 kts 240°
2026-05-09 14:35 39.22233 114.16290 34070 ft 433 kts 227°
2026-05-09 14:35 39.17072 114.12078 34058 ft 449 kts 213°
2026-05-09 14:36 39.11105 114.09459 34056 ft 460 kts 203°
2026-05-09 14:36 39.04922 114.07294 34050 ft 461 kts 202°
2026-05-09 14:37 38.98756 114.05129 34032 ft 460 kts 202°
2026-05-09 14:37 38.92595 114.02953 34028 ft 460 kts 202°
2026-05-09 14:38 38.86444 114.00776 34035 ft 459 kts 203°
2026-05-09 14:38 38.80282 113.98594 34040 ft 459 kts 203°
2026-05-09 14:39 38.74103 113.96410 34052 ft 461 kts 203°
2026-05-09 14:39 38.67955 113.94244 34056 ft 461 kts 203°
2026-05-09 14:40 38.61783 113.92069 34029 ft 461 kts 203°
2026-05-09 14:40 38.55597 113.89893 34012 ft 461 kts 203°
2026-05-09 14:41 38.49412 113.87723 33995 ft 463 kts 203°
2026-05-09 14:41 38.43235 113.85566 33980 ft 462 kts 203°
2026-05-09 14:42 38.37017 113.83394 33985 ft 463 kts 203°
2026-05-09 14:42 38.30816 113.81234 33985 ft 463 kts 203°
2026-05-09 14:43 38.24623 113.79087 33991 ft 463 kts 202°
2026-05-09 14:43 38.18428 113.76948 33984 ft 464 kts 202°
2026-05-09 14:44 38.12143 113.74779 33997 ft 466 kts 202°
2026-05-09 14:44 38.05897 113.72633 34018 ft 466 kts 202°
2026-05-09 14:45 37.99633 113.70481 34030 ft 467 kts 202°
2026-05-09 14:45 37.93409 113.68348 34030 ft 466 kts 202°
2026-05-09 14:46 37.87127 113.66201 34025 ft 465 kts 202°
2026-05-09 14:46 37.80910 113.64074 34050 ft 465 kts 202°
2026-05-09 14:47 37.74669 113.61947 34047 ft 464 kts 203°
2026-05-09 14:47 37.68463 113.59835 34052 ft 463 kts 202°
2026-05-09 14:48 37.62263 113.57725 34070 ft 463 kts 202°
2026-05-09 14:48 37.56055 113.55619 34088 ft 462 kts 202°
2026-05-09 14:49 37.49846 113.53516 34103 ft 462 kts 202°
2026-05-09 14:49 37.43648 113.51421 34110 ft 461 kts 202°
2026-05-09 14:50 37.37463 113.49332 34140 ft 460 kts 202°
2026-05-09 14:50 37.31294 113.47256 34147 ft 460 kts 202°
2026-05-09 14:51 37.25120 113.45178 34135 ft 461 kts 202°
2026-05-09 14:51 37.18902 113.43092 34155 ft 461 kts 202°
2026-05-09 14:52 37.12715 113.41019 34139 ft 461 kts 202°
2026-05-09 14:52 37.06545 113.38953 34112 ft 460 kts 202°
2026-05-09 14:53 37.00391 113.36899 34119 ft 457 kts 202°
2026-05-09 14:53 36.94267 113.34857 34138 ft 457 kts 201°
2026-05-09 14:54 36.88095 113.32800 34134 ft 458 kts 201°
2026-05-09 14:54 36.81942 113.30755 34146 ft 458 kts 201°
2026-05-09 14:55 36.75803 113.28718 34158 ft 458 kts 201°
2026-05-09 14:55 36.69661 113.26682 34162 ft 457 kts 201°
2026-05-09 14:56 36.63527 113.24654 34157 ft 456 kts 201°
2026-05-09 14:56 36.57388 113.22628 34140 ft 456 kts 201°
2026-05-09 14:57 36.51260 113.20608 34126 ft 456 kts 201°
2026-05-09 14:57 36.45136 113.18594 34115 ft 455 kts 201°
2026-05-09 14:58 36.39021 113.16586 34115 ft 455 kts 201°
2026-05-09 14:58 36.32901 113.14580 34108 ft 454 kts 201°
2026-05-09 14:59 36.26816 113.12573 34109 ft 453 kts 202°
2026-05-09 14:59 36.20894 113.10052 34113 ft 446 kts 209°
2026-05-09 15:00 36.15163 113.07056 34110 ft 445 kts 210°
2026-05-09 15:00 36.09503 113.04098 34115 ft 445 kts 210°
2026-05-09 15:01 36.00970 112.99656 34122 ft 443 kts 209°
2026-05-09 15:02 35.95287 112.96703 34118 ft 444 kts 209°
2026-05-09 15:02 35.89573 112.93745 34116 ft 444 kts 210°
2026-05-09 15:03 35.83908 112.90815 34119 ft 442 kts 210°
2026-05-09 15:03 35.78241 112.87882 34126 ft 441 kts 210°
2026-05-09 15:04 35.72608 112.84950 34123 ft 440 kts 211°
2026-05-09 15:06 35.50074 112.73214 34122 ft 439 kts 212°
2026-05-09 15:06 35.44429 112.70275 34114 ft 440 kts 212°
2026-05-09 15:07 35.38834 112.67366 34106 ft 439 kts 212°
2026-05-09 15:07 35.33210 112.64448 34100 ft 437 kts 213°
2026-05-09 15:08 35.27626 112.61552 34101 ft 439 kts 213°
2026-05-09 15:08 35.19174 112.57184 34080 ft 439 kts 213°
2026-05-09 15:10 34.95906 112.47451 34005 ft 447 kts 208°
2026-05-09 15:11 34.89961 112.45271 33999 ft 446 kts 208°
2026-05-09 15:11 34.84028 112.43100 34003 ft 446 kts 208°
2026-05-09 15:12 34.77943 112.41288 33995 ft 455 kts 201°
2026-05-09 15:12 34.71580 112.40305 34007 ft 465 kts 194°
2026-05-09 15:13 34.65035 112.40237 34006 ft 475 kts 187°
2026-05-09 15:13 34.58449 112.40801 34013 ft 476 kts 186°
2026-05-09 15:14 34.51841 112.41393 34011 ft 474 kts 186°
2026-05-09 15:14 34.45252 112.41965 34015 ft 475 kts 186°
2026-05-09 15:15 34.38660 112.42532 34020 ft 475 kts 186°
2026-05-09 15:15 34.32107 112.43086 34018 ft 476 kts 186°
2026-05-09 15:16 34.25508 112.43652 34021 ft 475 kts 186°
2026-05-09 15:16 34.18900 112.44214 34024 ft 475 kts 186°
2026-05-09 15:17 34.12329 112.44773 34035 ft 473 kts 186°
2026-05-09 15:17 34.05772 112.45328 34037 ft 473 kts 186°
2026-05-09 15:18 33.99202 112.45886 34045 ft 473 kts 186°
2026-05-09 15:18 33.92644 112.46441 34052 ft 473 kts 186°
2026-05-09 15:19 33.86064 112.46998 34054 ft 474 kts 185°
2026-05-09 15:19 33.79503 112.47549 34058 ft 475 kts 185°
2026-05-09 15:20 33.69600 112.48389 34045 ft 475 kts 185°
2026-05-09 15:21 33.63012 112.48943 34052 ft 475 kts 185°
2026-05-09 15:21 33.56413 112.49500 34053 ft 475 kts 185°
2026-05-09 15:22 33.49798 112.50061 34057 ft 476 kts 185°
2026-05-09 15:22 33.43211 112.50621 34064 ft 475 kts 185°
2026-05-09 15:23 33.36633 112.51181 34058 ft 476 kts 185°
2026-05-09 15:23 33.30047 112.51740 34064 ft 475 kts 184°
2026-05-09 15:24 33.23429 112.52304 34055 ft 474 kts 184°
2026-05-09 15:24 33.16846 112.52861 34054 ft 476 kts 184°
2026-05-09 15:25 33.10261 112.53421 34052 ft 475 kts 184°
2026-05-09 15:25 33.03641 112.53981 34052 ft 474 kts 184°
2026-05-09 15:26 32.93828 112.54160 34057 ft 467 kts 192°
2026-05-09 15:26 32.87462 112.53223 34055 ft 458 kts 199°
2026-05-09 15:27 32.81297 112.51521 34057 ft 451 kts 204°
2026-05-09 15:27 32.75245 112.49512 34052 ft 452 kts 204°
2026-05-09 15:28 32.69221 112.47539 34056 ft 449 kts 204°
2026-05-09 15:28 32.63217 112.45579 34054 ft 448 kts 204°
2026-05-09 15:29 32.57200 112.43618 34058 ft 449 kts 204°
2026-05-09 15:29 32.51165 112.41652 34056 ft 448 kts 204°
2026-05-09 15:30 32.45162 112.39702 34043 ft 447 kts 204°
2026-05-09 15:30 32.39146 112.37749 34051 ft 447 kts 204°
2026-05-09 15:31 32.33169 112.35813 34046 ft 445 kts 204°
2026-05-09 15:31 32.27195 112.33878 34044 ft 446 kts 204°
2026-05-09 15:32 32.21191 112.31937 34047 ft 445 kts 204°
2026-05-09 15:32 32.15239 112.30019 34044 ft 447 kts 204°
2026-05-09 15:33 32.09271 112.28105 34038 ft 447 kts 202°
2026-05-09 15:33 32.03131 112.26633 34052 ft 451 kts 198°
2026-05-09 15:34 31.96950 112.25380 34038 ft 449 kts 198°
2026-05-09 15:34 31.90789 112.24131 34054 ft 449 kts 198°
2026-05-09 15:35 31.84618 112.22882 34027 ft 450 kts 198°
2026-05-09 15:35 31.78435 112.21632 34046 ft 451 kts 199°
2026-05-09 15:36 31.72241 112.20379 34055 ft 451 kts 199°
2026-05-09 15:36 31.66062 112.19133 34048 ft 451 kts 199°
2026-05-09 15:37 31.59886 112.17891 34046 ft 451 kts 199°
2026-05-09 15:37 31.53716 112.16650 34051 ft 450 kts 199°
2026-05-09 15:38 31.47547 112.15411 34070 ft 449 kts 199°
2026-05-09 15:38 31.41387 112.14176 34051 ft 448 kts 200°
2026-05-09 15:39 31.35314 112.12720 34067 ft 446 kts 202°
2026-05-09 15:39 31.29231 112.11225 34068 ft 445 kts 202°
2026-05-09 15:40 31.23181 112.09744 34090 ft 444 kts 202°
2026-05-09 15:40 31.17139 112.08264 34070 ft 443 kts 202°
2026-05-09 15:41 31.11090 112.06789 34078 ft 444 kts 202°
2026-05-09 15:41 31.05024 112.05306 34078 ft 445 kts 202°
2026-05-09 15:42 30.98948 112.03828 34087 ft 444 kts 202°
2026-05-09 15:42 30.92890 112.02353 34080 ft 443 kts 203°
2026-05-09 15:43 30.86851 112.00887 34092 ft 442 kts 203°
2026-05-09 15:43 30.80825 111.99427 34090 ft 441 kts 203°
2026-05-09 15:44 30.74830 111.97975 34081 ft 439 kts 203°
2026-05-09 15:44 30.68823 111.96518 34088 ft 441 kts 203°
2026-05-09 15:45 30.62823 111.95071 34093 ft 441 kts 204°
2026-05-09 15:45 30.56823 111.93627 34086 ft 439 kts 203°
2026-05-09 15:46 30.50821 111.92187 34082 ft 439 kts 204°
2026-05-09 15:46 30.44877 111.90761 34091 ft 437 kts 203°
2026-05-09 15:47 30.38927 111.89337 34089 ft 438 kts 204°
2026-05-09 15:47 30.35919 111.88617 34260 ft 438 kts 204°
2026-05-09 15:47 30.32958 111.87913 34518 ft 437 kts 204°
2026-05-09 15:48 30.29982 111.87204 34756 ft 436 kts 204°
2026-05-09 15:48 30.26989 111.86490 35019 ft 434 kts 204°
2026-05-09 15:48 30.24058 111.85794 35297 ft 432 kts 204°
2026-05-09 15:48 30.21096 111.85088 35520 ft 431 kts 205°
2026-05-09 15:49 30.18174 111.84391 35658 ft 432 kts 205°
2026-05-09 15:49 30.15210 111.83683 35799 ft 432 kts 205°
2026-05-09 15:49 30.12292 111.82989 36017 ft 431 kts 205°
2026-05-09 15:49 30.09336 111.82286 36091 ft 431 kts 205°
2026-05-09 15:50 30.03477 111.80893 36098 ft 431 kts 205°
2026-05-09 15:50 29.97612 111.79497 36099 ft 430 kts 205°
2026-05-09 15:51 29.91751 111.78108 36104 ft 431 kts 205°
2026-05-09 15:51 29.85891 111.76721 36101 ft 430 kts 205°
2026-05-09 15:52 29.77115 111.74647 36105 ft 430 kts 205°
2026-05-09 15:53 29.71264 111.73268 36103 ft 428 kts 205°
2026-05-09 15:53 29.65411 111.71886 36101 ft 430 kts 205°
2026-05-09 15:54 29.59551 111.70506 36106 ft 430 kts 205°
2026-05-09 15:54 29.53672 111.69126 36110 ft 431 kts 205°
2026-05-09 15:55 29.47801 111.67750 36113 ft 430 kts 205°
2026-05-09 15:55 29.41931 111.66373 36120 ft 431 kts 205°
2026-05-09 15:56 29.36024 111.65131 36119 ft 436 kts 201°
2026-05-09 15:56 29.29902 111.64519 36122 ft 446 kts 196°
2026-05-09 15:57 29.23690 111.64192 36120 ft 446 kts 196°
2026-05-09 15:57 29.17480 111.63868 36118 ft 447 kts 195°
2026-05-09 15:58 29.11282 111.63544 36122 ft 445 kts 196°
2026-05-09 15:58 29.05088 111.63219 36122 ft 446 kts 196°
2026-05-09 15:59 28.98876 111.62891 36122 ft 447 kts 196°
2026-05-09 15:59 28.92654 111.62566 36128 ft 447 kts 195°
2026-05-09 16:00 28.86463 111.62243 36133 ft 446 kts 195°
2026-05-09 16:00 28.80298 111.61663 36135 ft 441 kts 198°
2026-05-09 16:01 28.74189 111.60996 36139 ft 440 kts 198°
2026-05-09 16:01 28.68075 111.60334 36137 ft 441 kts 198°
2026-05-09 16:02 28.61944 111.59670 36145 ft 442 kts 198°
2026-05-09 16:02 28.52797 111.58685 36148 ft 442 kts 198°
2026-05-09 16:03 28.46652 111.58024 36151 ft 442 kts 198°
2026-05-09 16:03 28.40522 111.57363 36163 ft 442 kts 198°
2026-05-09 16:04 28.34436 111.56715 36168 ft 441 kts 198°
2026-05-09 16:04 28.28308 111.56065 36171 ft 443 kts 198°
2026-05-09 16:05 28.22155 111.55414 36175 ft 443 kts 197°
2026-05-09 16:05 28.16022 111.54768 36184 ft 442 kts 197°
2026-05-09 16:06 28.09906 111.54125 36186 ft 442 kts 197°
2026-05-09 16:06 28.03771 111.53479 36186 ft 442 kts 197°
2026-05-09 16:07 27.97639 111.52835 36187 ft 443 kts 197°
2026-05-09 16:07 27.91501 111.52184 36182 ft 443 kts 197°
2026-05-09 16:08 27.85356 111.51537 36187 ft 442 kts 197°
2026-05-09 16:08 27.79225 111.50896 36186 ft 442 kts 197°
2026-05-09 16:09 27.73089 111.50253 36191 ft 444 kts 197°
2026-05-09 16:09 27.66948 111.49612 36187 ft 443 kts 197°
2026-05-09 16:10 27.60802 111.48970 36188 ft 443 kts 197°
2026-05-09 16:10 27.54649 111.48329 36186 ft 443 kts 197°
2026-05-09 16:11 27.48515 111.47693 36188 ft 442 kts 197°
2026-05-09 16:11 27.42389 111.47056 36187 ft 441 kts 197°
2026-05-09 16:12 27.36289 111.46419 36186 ft 443 kts 196°
2026-05-09 16:12 27.30138 111.45783 36182 ft 445 kts 196°
2026-05-09 16:13 27.23988 111.45149 36180 ft 442 kts 196°
2026-05-09 16:13 27.17854 111.44514 36178 ft 443 kts 196°
2026-05-09 16:14 27.11714 111.43881 36172 ft 443 kts 196°
2026-05-09 16:14 27.05580 111.43253 36179 ft 442 kts 196°
2026-05-09 16:15 26.99447 111.42531 36174 ft 441 kts 199°
2026-05-09 16:15 26.93574 111.41024 36174 ft 426 kts 207°
2026-05-09 16:16 26.88084 111.38623 36175 ft 417 kts 215°
2026-05-09 16:16 26.83088 111.35459 36179 ft 410 kts 222°
2026-05-09 16:17 26.78273 111.31931 36182 ft 411 kts 222°
2026-05-09 16:17 26.73491 111.28426 36189 ft 410 kts 222°
2026-05-09 16:18 26.68704 111.24919 36185 ft 412 kts 222°
2026-05-09 16:18 26.63894 111.21400 36187 ft 412 kts 222°
2026-05-09 16:19 26.59123 111.17910 36186 ft 412 kts 222°
2026-05-09 16:19 26.54222 111.14479 36190 ft 415 kts 220°
2026-05-09 16:20 26.49281 111.11125 36191 ft 416 kts 220°
2026-05-09 16:20 26.44334 111.07763 36188 ft 418 kts 220°
2026-05-09 16:21 26.39383 111.04393 36182 ft 417 kts 220°
2026-05-09 16:21 26.34411 111.01005 36172 ft 420 kts 220°
2026-05-09 16:22 26.29416 110.97609 36161 ft 421 kts 220°
2026-05-09 16:22 26.24396 110.94200 36158 ft 424 kts 220°
2026-05-09 16:23 26.19361 110.90786 36154 ft 424 kts 220°
2026-05-09 16:23 26.14327 110.87373 36168 ft 425 kts 220°
2026-05-09 16:24 26.09277 110.83953 36184 ft 425 kts 220°
2026-05-09 16:24 26.04220 110.80525 36209 ft 425 kts 220°
2026-05-09 16:25 25.99166 110.77091 36243 ft 425 kts 220°
2026-05-09 16:25 25.94110 110.73661 36254 ft 426 kts 220°
2026-05-09 16:26 25.89068 110.70242 36222 ft 426 kts 220°
2026-05-09 16:26 25.83997 110.66811 36200 ft 426 kts 220°
2026-05-09 16:27 25.78933 110.63388 36181 ft 426 kts 220°
2026-05-09 16:27 25.73870 110.59958 36173 ft 426 kts 220°
2026-05-09 16:28 25.68884 110.56492 36179 ft 425 kts 220°
2026-05-09 16:28 25.63882 110.53014 36190 ft 424 kts 220°
2026-05-09 16:29 25.58877 110.49545 36196 ft 424 kts 220°
2026-05-09 16:29 25.53890 110.46031 36205 ft 423 kts 222°
2026-05-09 16:30 25.49008 110.42406 36205 ft 422 kts 222°
2026-05-09 16:30 25.44122 110.38798 36193 ft 423 kts 222°
2026-05-09 16:31 25.39239 110.35178 36180 ft 423 kts 222°
2026-05-09 16:31 25.34324 110.31514 36173 ft 424 kts 222°
2026-05-09 16:32 25.30272 110.28498 36168 ft 424 kts 221°
2026-05-09 16:32 25.24575 110.24267 36163 ft 423 kts 221°
2026-05-09 16:33 25.19697 110.20647 36160 ft 423 kts 222°
2026-05-09 16:33 25.14824 110.17003 36159 ft 423 kts 222°
2026-05-09 16:34 25.09944 110.13359 36159 ft 424 kts 221°
2026-05-09 16:34 25.05063 110.09720 36157 ft 423 kts 221°
2026-05-09 16:35 25.00183 110.06085 36158 ft 424 kts 221°
2026-05-09 16:35 24.95298 110.02453 36158 ft 424 kts 221°
2026-05-09 16:36 24.85519 109.95187 36161 ft 425 kts 221°
2026-05-09 16:37 24.80627 109.91559 36164 ft 424 kts 221°
2026-05-09 16:37 24.75733 109.87936 36167 ft 424 kts 221°
2026-05-09 16:38 24.70840 109.84312 36162 ft 425 kts 221°
2026-05-09 16:38 24.65938 109.80680 36161 ft 426 kts 221°
2026-05-09 16:39 24.61032 109.77026 36152 ft 426 kts 221°
2026-05-09 16:39 24.56120 109.73370 36149 ft 427 kts 221°
2026-05-09 16:40 24.51213 109.69725 36144 ft 426 kts 221°
2026-05-09 16:42 24.31534 109.55154 36152 ft 428 kts 221°
2026-05-09 16:42 24.26587 109.51505 36153 ft 428 kts 221°
2026-05-09 16:43 24.21653 109.47874 36152 ft 427 kts 221°
2026-05-09 16:43 24.16706 109.44233 36147 ft 428 kts 220°
2026-05-09 16:44 24.11770 109.40608 36145 ft 428 kts 220°
2026-05-09 16:44 24.06827 109.36979 36140 ft 428 kts 220°
2026-05-09 16:45 24.01880 109.33350 36137 ft 429 kts 220°
2026-05-09 16:45 23.96916 109.29712 36132 ft 429 kts 220°
2026-05-09 16:46 23.91987 109.26102 36128 ft 429 kts 220°
2026-05-09 16:46 23.87007 109.22461 36129 ft 431 kts 220°
2026-05-09 16:47 23.82034 109.18829 36124 ft 430 kts 220°
2026-05-09 16:47 23.77037 109.15158 36124 ft 428 kts 221°
2026-05-09 16:48 23.72305 109.11224 36126 ft 428 kts 224°
2026-05-09 16:48 23.67621 109.07224 36125 ft 428 kts 224°
2026-05-09 16:49 23.62926 109.03217 36126 ft 429 kts 224°
2026-05-09 16:50 23.55891 108.97223 36123 ft 429 kts 224°
2026-05-09 16:50 23.51195 108.93227 36124 ft 427 kts 224°
2026-05-09 16:51 23.46503 108.89239 36125 ft 429 kts 224°
2026-05-09 16:51 23.41792 108.85235 36121 ft 430 kts 224°
2026-05-09 16:52 23.37070 108.81229 36123 ft 430 kts 224°
2026-05-09 16:52 23.32341 108.77218 36124 ft 431 kts 224°
2026-05-09 16:53 23.27610 108.73212 36124 ft 431 kts 223°
2026-05-09 16:53 23.22885 108.69211 36123 ft 430 kts 224°
2026-05-09 16:54 23.18186 108.65225 36125 ft 430 kts 223°
2026-05-09 16:54 23.13434 108.61195 36127 ft 431 kts 223°
2026-05-09 16:55 23.08703 108.57194 36131 ft 430 kts 223°
2026-05-09 16:55 23.03960 108.53184 36128 ft 432 kts 224°
2026-05-09 16:56 22.99234 108.49187 36133 ft 432 kts 223°
2026-05-09 16:56 22.94492 108.45188 36128 ft 431 kts 223°
2026-05-09 16:57 22.89783 108.41215 36127 ft 432 kts 223°
2026-05-09 16:57 22.85033 108.37214 36130 ft 431 kts 223°
2026-05-09 16:58 22.80287 108.33218 36134 ft 432 kts 223°
2026-05-09 16:58 22.75532 108.29220 36132 ft 432 kts 223°
2026-05-09 16:59 22.70790 108.25236 36133 ft 431 kts 223°
2026-05-09 16:59 22.66056 108.21238 36134 ft 431 kts 225°
2026-05-09 17:00 22.61950 108.16612 36139 ft 423 kts 237°
2026-05-09 17:00 22.58896 108.11243 36139 ft 417 kts 248°
2026-05-09 17:01 22.56966 108.05381 36140 ft 413 kts 258°
2026-05-09 17:01 22.55835 107.99307 36141 ft 413 kts 261°
2026-05-09 17:02 22.54765 107.93212 36137 ft 413 kts 261°
2026-05-09 17:02 22.53683 107.87089 36134 ft 414 kts 261°
2026-05-09 17:03 22.52604 107.80993 36132 ft 414 kts 261°
2026-05-09 17:05 22.48261 107.56642 36143 ft 413 kts 261°
2026-05-09 17:05 22.47169 107.50562 35950 ft 414 kts 261°
2026-05-09 17:05 22.46619 107.47501 35659 ft 412 kts 261°
2026-05-09 17:06 22.46079 107.44501 35370 ft 409 kts 260°
2026-05-09 17:06 22.45534 107.41479 35079 ft 407 kts 261°
2026-05-09 17:06 22.44998 107.38510 34794 ft 406 kts 260°
2026-05-09 17:06 22.44454 107.35496 34502 ft 408 kts 260°
2026-05-09 17:07 22.43911 107.32504 34217 ft 409 kts 260°
2026-05-09 17:07 22.43549 107.30500 34025 ft 410 kts 260°
2026-05-09 17:07 22.42814 107.26449 33642 ft 412 kts 259°
2026-05-09 17:07 22.42272 107.23438 33360 ft 413 kts 260°
2026-05-09 17:08 22.41725 107.20373 33071 ft 414 kts 260°
2026-05-09 17:08 22.40633 107.14273 32511 ft 418 kts 259°
2026-05-09 17:08 22.40078 107.11176 32253 ft 419 kts 259°
2026-05-09 17:09 22.39527 107.08111 31992 ft 420 kts 259°
2026-05-09 17:09 22.38963 107.04990 31735 ft 422 kts 259°
2026-05-09 17:09 22.38405 107.01906 31476 ft 422 kts 259°
2026-05-09 17:09 22.37837 106.98770 31096 ft 424 kts 259°
2026-05-09 17:10 22.37279 106.95687 30634 ft 420 kts 259°
2026-05-09 17:10 22.36718 106.92589 30258 ft 418 kts 259°
2026-05-09 17:10 22.35959 106.89602 29814 ft 416 kts 251°
2026-05-09 17:10 22.34723 106.86772 29354 ft 415 kts 242°
2026-05-09 17:11 22.33099 106.84242 28891 ft 414 kts 233°
2026-05-09 17:11 22.31127 106.81964 28429 ft 412 kts 227°
2026-05-09 17:11 22.29115 106.79816 27971 ft 409 kts 227°
2026-05-09 17:11 22.27079 106.77666 27508 ft 406 kts 227°
2026-05-09 17:12 22.25089 106.75563 27051 ft 402 kts 227°
2026-05-09 17:12 22.23091 106.73444 26588 ft 399 kts 227°
2026-05-09 17:12 22.21139 106.71370 26133 ft 396 kts 227°
2026-05-09 17:12 22.19176 106.69283 25681 ft 392 kts 226°
2026-05-09 17:13 22.17202 106.67299 25236 ft 390 kts 223°
2026-05-09 17:13 22.15115 106.65418 24782 ft 387 kts 221°
2026-05-09 17:13 22.13046 106.63609 24333 ft 385 kts 221°
2026-05-09 17:13 22.10962 106.61790 23884 ft 382 kts 221°
2026-05-09 17:14 22.08921 106.60010 23446 ft 379 kts 221°
2026-05-09 17:14 22.06865 106.58217 23006 ft 377 kts 221°
2026-05-09 17:14 22.04846 106.56458 22566 ft 375 kts 221°
2026-05-09 17:14 22.02842 106.54713 22135 ft 372 kts 221°
2026-05-09 17:15 22.00811 106.52944 21702 ft 370 kts 221°
2026-05-09 17:15 21.98825 106.51215 21256 ft 369 kts 221°
2026-05-09 17:15 21.96821 106.49459 20801 ft 368 kts 222°
2026-05-09 17:15 21.94911 106.47660 20343 ft 367 kts 223°
2026-05-09 17:16 21.92991 106.45827 19879 ft 366 kts 223°
2026-05-09 17:17 21.79849 106.33282 16683 ft 356 kts 223°
2026-05-09 17:18 21.77987 106.31506 16224 ft 355 kts 223°
2026-05-09 17:18 21.76157 106.29766 15776 ft 353 kts 223°
2026-05-09 17:18 21.74325 106.27991 15314 ft 351 kts 225°
2026-05-09 17:18 21.72633 106.26138 14892 ft 348 kts 228°
2026-05-09 17:19 21.71077 106.24181 14859 ft 340 kts 231°
2026-05-09 17:19 21.69579 106.22232 14540 ft 341 kts 231°
2026-05-09 17:19 21.68066 106.20258 14097 ft 339 kts 231°
2026-05-09 17:19 21.66582 106.18322 13661 ft 338 kts 230°
2026-05-09 17:20 21.65083 106.16368 13223 ft 336 kts 231°
2026-05-09 17:20 21.63612 106.14450 12792 ft 334 kts 231°
2026-05-09 17:20 21.62127 106.12515 12348 ft 333 kts 230°
2026-05-09 17:20 21.60667 106.10613 11906 ft 332 kts 230°
2026-05-09 17:21 21.59208 106.08712 11461 ft 331 kts 230°
2026-05-09 17:21 21.57735 106.06796 11015 ft 330 kts 230°
2026-05-09 17:21 21.56287 106.04913 10582 ft 329 kts 230°
2026-05-09 17:21 21.54835 106.03025 10313 ft 319 kts 230°
2026-05-09 17:22 21.53470 106.01252 10185 ft 301 kts 230°
2026-05-09 17:22 21.52164 105.99555 10062 ft 287 kts 230°
2026-05-09 17:22 21.50900 105.97913 9870 ft 288 kts 230°
2026-05-09 17:22 21.49614 105.96245 9471 ft 288 kts 230°
2026-05-09 17:23 21.48351 105.94604 9095 ft 286 kts 229°
2026-05-09 17:23 21.47077 105.92954 8731 ft 285 kts 229°
2026-05-09 17:23 21.45828 105.91335 8364 ft 283 kts 229°
2026-05-09 17:23 21.44568 105.89703 8008 ft 281 kts 229°
2026-05-09 17:25 21.38613 105.81631 6235 ft 274 kts 246°
2026-05-09 17:25 21.38146 105.79649 5902 ft 273 kts 262°
2026-05-09 17:25 21.37966 105.77644 5578 ft 272 kts 264°
2026-05-09 17:25 21.37813 105.75619 5265 ft 270 kts 264°
2026-05-09 17:26 21.37657 105.73656 4988 ft 263 kts 264°
2026-05-09 17:26 21.37493 105.71710 4630 ft 258 kts 264°
2026-05-09 17:26 21.37328 105.69836 4329 ft 251 kts 264°
2026-05-09 17:26 21.37166 105.68015 4194 ft 235 kts 264°
2026-05-09 17:27 21.36948 105.66365 4156 ft 215 kts 251°
2026-05-09 17:27 21.36169 105.65102 4078 ft 198 kts 220°
2026-05-09 17:27 21.34973 105.64445 3807 ft 193 kts 194°
2026-05-09 17:27 21.33672 105.64123 3559 ft 192 kts 190°
2026-05-09 17:28 21.32352 105.63827 3316 ft 192 kts 190°
2026-05-09 17:28 21.31053 105.63528 3092 ft 192 kts 191°
2026-05-09 17:28 21.29735 105.63212 2872 ft 192 kts 191°
2026-05-09 17:28 21.28422 105.63006 2602 ft 191 kts 172°
2026-05-09 17:29 21.27259 105.63607 2499 ft 186 kts 131°
2026-05-09 17:29 21.26630 105.64797 2528 ft 185 kts 109°
2026-05-09 17:29 21.26254 105.66129 2449 ft 185 kts 103°
2026-05-09 17:29 21.25927 105.67451 2218 ft 185 kts 104°
2026-05-09 17:30 21.25571 105.68783 1979 ft 185 kts 104°
2026-05-09 17:30 21.25202 105.70065 1732 ft 174 kts 105°
2026-05-09 17:30 21.24855 105.71242 1522 ft 156 kts 105°
2026-05-09 17:30 21.24545 105.72298 1311 ft 146 kts 105°
2026-05-09 17:31 21.24241 105.73347 1137 ft 146 kts 105°
2026-05-09 17:31 21.23940 105.74382 960 ft 146 kts 105°
2026-05-09 17:32 21.22727 105.78549 217 ft 146 kts 106°
2026-05-09 17:32 21.22426 105.79596 50 ft 142 kts 107°
2026-05-09 17:32 21.22187 105.80429 48 ft 93 kts 109°
2026-05-09 17:33 21.22045 105.80920 48 ft 43 kts 107°
2026-05-09 17:33 21.21999 105.81078 48 ft 7 kts 112°
2026-05-09 17:33 21.21958 105.81078 48 ft 8 kts 243°
2026-05-09 17:33 21.21944 105.81014 48 ft 9 kts 257°
2026-05-09 17:34 21.21930 105.80952 48 ft 8 kts 257°
2026-05-09 17:35 21.21711 105.80683 48 ft 9 kts 197°
2026-05-09 17:35 21.21650 105.80660 48 ft 8 kts 215°
2026-05-09 17:36 21.21636 105.80601 48 ft 9 kts 281°
2026-05-09 17:36 21.21655 105.80532 48 ft 9 kts 287°
2026-05-09 17:36 21.21676 105.80459 48 ft 10 kts 287°
2026-05-09 17:36 21.21696 105.80389 48 ft 10 kts 287°
2026-05-09 17:37 21.21716 105.80320 48 ft 9 kts 287°
2026-05-09 17:37 21.21730 105.80272 48 ft 4 kts 287°
2026-05-09 17:37 21.21738 105.80239 48 ft 3 kts 277°
2026-05-09 17:37 21.21728 105.80215 48 ft 4 kts 220°
2026-05-09 17:38 21.21697 105.80204 48 ft 5 kts 186°
2026-05-09 17:38 21.21664 105.80205 48 ft 4 kts 188°
2026-05-09 17:38 21.21640 105.80199 48 ft 2 kts 195°
2026-05-09 17:39 21.21619 105.80192 48 ft 1 kts 197°
2026-05-09 17:39 21.21615 105.80190 48 ft 1 kts 197°
2026-05-09 17:39 21.21607 105.80188 48 ft 0 kts 197°